STARLINK-11194, 60187

Orbit data source: Space-Track

STARLINK-11194, 60187 is a payload satellite owned by SpaceX/Seattle (US) in LEO that was launched on Wed, 03 Jul 2024 UTC via an FALCON 9 launch vehicle from the Air Force Eastern Test Range (AFETR). Payload-class satellites include a variety of spacecraft equipped with specific instruments for various scientific and technological missions. These include communications satellites like Starlink; space stations such as the ISS; scientific satellites like the Hubble; Earth observation satellites from companies like Planet Labs, Umbra, and HawkEye 360; GPS; miniature CubeSats for education and research; and military/defense satellites.

Loading next visibility...
Identifier
60187, 2024-124E
Orbit
LEO
Last TLE update
8 hours ago
Origin
Manufacturer
SpaceX/Seattle
Mission
Operational Commercial Communications
Bus & Motor
STARLINK V2M, Unknown motor
Mass
730 kg wet, ~700 kg dry
Launch date (UTC)
2024-07-03 (1 year ago)
Launch vehicle
FALCON 9
Launch site
Air Force Eastern Test Range (AFETR)
Object type
Payload
Rocket body
Debris
Shape & HBR
Box + 2 Pan, 29 m
Radar Cross Section
36.964 m², Large (>1 m²)

Expand to show TLE details & history

TLE from 8 hours ago
0 STARLINK-11194
1 60187U 24124E   25182.10266776 -.00001323  00000-0 -60765-5 0  9998
2 60187  53.1592 321.1854 0000329  86.5083 273.5972 15.69704604 58210
Epoch: 2025-07-01T02:27Z
TLE epoch observation values (Epoch: 2025-07-01T02:27:50.494Z)
Latitude
-0.00006°
Longitude
4.82202°
Altitude
360.643 km
Speed
7.694 km/s
True Right ascension
21h 24m 44s
True Declination
0° 00' 00"
Sunlit
Object was in full shadow at epoch
Visualization orbit readout
Latitude
5.97585°
Longitude
7.71856°
Altitude
360.041 km
Speed
7.695 km/s
Apparent Right ascension
21h 08m 45s
Apparent Declination
-61° 38' 25"
Sunlit
Object is in full shadow
Visualization observer readout
Local Sidereal Time
21:46:33
Azimuth
184.569° SSW
Elevation
-11.845°
Doppler factor
1
Orbital elements
Apogee altitude
360.225 km
Perigee altitude
359.781 km
Semi-major axis
6,738.14 km
Eccentricity
0.00003
Inclination
53.1592°
RAAN
321.1854°
Arg. of periapsis
86.5083°
True anomaly
Unknown
Mean anomaly
273.5972°
Eccentric anomaly
Unknown
Mean motion
3.92404 °/min
Orbital period
91.74 mins
BSTAR
-0.0000060765
Loading maneuver chart data...
Loading SW <> Apogee altitude chart data...
Loading historical data...
Loading historical data...
Loading historical data...
Loading historical data...
Loading historical data...
Loading historical data...
Loading historical data...

STARLINK-11194 Visibility forecast

Observer location: undefined°, undefined°

Span
Click to sort rows by Start time (UTC) header in descending order
Start Az.
Max El. time (UTC)
Max El. Az.
Max El.
End time (UTC)
End Az.
5 mins2025-07-01 11:48:09.176Z209.23° SW2025-07-01 11:51:09.176Z102.454° ESE33.462°2025-07-01 11:53:09.176Z62.656° ENE
|